Weather History for KBUF - February, 2013

Change the Weather History Date:

Wednesday, February 13, 2013

  Actual Average Record
Temperature  
Mean Temperature 32 °F 26 °F  
Max Temperature 37 °F 33 °F 61 °F (1984)
Min Temperature 26 °F 19 °F -9 °F (1914)
Degree Days  
Heating Degree Days 33 39  
Month to date heating degree days 534 518  
Since 1 July heating degree days 3772 4177  
Cooling Degree Days 0 0  
Month to date cooling degree days 0 0  
Year to date cooling degree days 0 0  
Moisture  
Dew Point 22 °F    
Average Humidity 69    
Maximum Humidity 81    
Minimum Humidity 56    
Precipitation  
Precipitation T in 0.09 in 1.34 in (1938)
Month to date precipitation 1.04 1.14  
Year to date precipitation 3.54 4.32  
Snow  
Snow T in 0.60 in 8.80 in (1995)
Month to date snowfall 17.9 8.5  
Since 1 July snowfall 46.1 70.0  
Snow Depth 2.00 in    
Sea Level Pressure  
Sea Level Pressure 29.82 in    
Wind  
Wind Speed 5 mph (WSW)    
Max Wind Speed 12 mph    
Max Gust Speed 14 mph    
Visibility 10 miles    
Events Snow    
T = Trace of Precipitation, MM = Missing Value Source: NWS Daily Summary

Daily Weather History Graph

Daily Weather History Graph

Search for Another Location

Airport or City:

Trip Planner

Search our weather history database for the weather conditions in past years. The results will help you decide how hot, cold, wet, or windy it might be!

Date:

Astronomy

Feb. 13, 2013 Rise Set
Actual Time 7:14 AM EST 5:44 PM EST
Civil Twilight 6:45 AM EST 6:13 PM EST
Nautical Twilight 6:12 AM EST 6:46 PM EST
Astronomical Twilight 5:39 AM EST 7:19 PM EST
Moon 8:36 AM EST (2/13) 9:52 PM EST (2/13)
Length of Visible Light 11h 27m
Length of Day
10h 29m
Waxing Crescent, 13% of the Moon is Illuminated
Feb 13
Waxing Crescent
Feb 17
First Quarter
Feb 25
Full
Mar 4
Last Quarter
Mar 11
New

Hourly Weather History & Observations

Time (EST) Temp. Windchill Dew Point Humidity Pressure Visibility Wind Dir Wind Speed Gust Speed Precip Events Conditions
12:54 AM 30.9 °F 25.2 °F 21.0 °F 67% 29.91 in 10.0 mi WSW 5.8 mph - N/A   Overcast
1:54 AM 30.0 °F 25.2 °F 21.0 °F 69% 29.91 in 10.0 mi WSW 4.6 mph - N/A   Overcast
2:54 AM 30.9 °F 26.2 °F 21.9 °F 69% 29.90 in 10.0 mi WSW 4.6 mph - N/A   Overcast
3:54 AM 30.9 °F 26.2 °F 21.9 °F 69% 29.88 in 10.0 mi WSW 4.6 mph - N/A   Overcast
4:54 AM 30.0 °F 26.5 °F 24.1 °F 79% 29.87 in 10.0 mi SSW 3.5 mph - N/A   Overcast
5:54 AM 30.9 °F 23.5 °F 24.1 °F 76% 29.88 in 10.0 mi SSW 8.1 mph - N/A   Overcast
6:54 AM 30.0 °F 25.2 °F 24.1 °F 79% 29.87 in 9.0 mi SW 4.6 mph - 0.00 in Snow Light Snow
7:12 AM 30.2 °F 23.4 °F 24.8 °F 80% 29.84 in 9.0 mi SW 6.9 mph - 0.00 in Snow Light Snow
7:54 AM 30.9 °F 25.2 °F 24.1 °F 76% 29.86 in 7.0 mi SSW 5.8 mph - 0.00 in Snow Light Snow
8:54 AM 30.2 °F 24.3 °F 23.0 °F 75% 29.83 in 10.0 mi WSW 5.8 mph - N/A   Overcast
9:50 AM 30.2 °F 25.4 °F 21.2 °F 69% 29.81 in 10.0 mi West 4.6 mph - N/A   Overcast
9:54 AM 30.9 °F 26.2 °F 21.0 °F 67% 29.84 in 10.0 mi WSW 4.6 mph - N/A   Overcast
10:54 AM 32.0 °F 25.6 °F 21.9 °F 66% 29.82 in 10.0 mi SSW 6.9 mph - N/A   Overcast
11:54 AM 32.0 °F 24.8 °F 21.0 °F 64% 29.80 in 10.0 mi WSW 8.1 mph - N/A   Mostly Cloudy
12:54 PM 33.1 °F 25.5 °F 21.9 °F 64% 29.79 in 10.0 mi WSW 9.2 mph - N/A   Mostly Cloudy
1:54 PM 34.0 °F 29.8 °F 21.9 °F 61% 29.76 in 10.0 mi WNW 4.6 mph - N/A   Scattered Clouds
2:54 PM 36.0 °F - 21.0 °F 55% 29.75 in 10.0 mi Calm Calm - N/A   Scattered Clouds
3:54 PM 36.0 °F 31.1 °F 21.9 °F 57% 29.75 in 10.0 mi West 5.8 mph - N/A   Mostly Cloudy
4:54 PM 34.0 °F 28.8 °F 21.9 °F 61% 29.74 in 10.0 mi NW 5.8 mph - N/A   Mostly Cloudy
5:54 PM 32.0 °F 25.6 °F 21.9 °F 66% 29.75 in 10.0 mi North 6.9 mph - N/A   Mostly Cloudy
6:54 PM 28.9 °F 22.8 °F 21.9 °F 75% 29.77 in 10.0 mi North 5.8 mph - N/A   Scattered Clouds
7:54 PM 28.0 °F - 21.0 °F 75% 29.78 in 10.0 mi Calm Calm - N/A   Partly Cloudy
8:54 PM 27.0 °F 21.6 °F 21.0 °F 78% 29.79 in 9.0 mi SSE 4.6 mph - N/A   Partly Cloudy
9:54 PM 26.1 °F 21.9 °F 21.0 °F 81% 29.80 in 9.0 mi South 3.5 mph - N/A   Scattered Clouds
10:54 PM 27.0 °F 21.6 °F 21.0 °F 78% 29.81 in 7.0 mi SW 4.6 mph - N/A   Scattered Clouds
11:54 PM 26.1 °F 21.9 °F 21.9 °F 84% 29.82 in 7.0 mi SW 3.5 mph - N/A   Scattered Clouds